User: anonymous   Login
Location: Heidgraben
(53.7081°N, 9.6576°E)
Time: 07:52:19
(UTC+00:00)
Language:

Cosmos 2333 Rocket - Orbit

View from above orbital plane
View from above orbital plane
View from above satellite
View from above satellite

Ground track
Ground track

The orbit data is extracted from the following two-line orbital elements,

1 24298U 96051B   21026.66113192 -.00000205  00000-0 -84600-4 0  9997
2 24298  70.8375 159.9694 0014523  12.4334 347.7141 14.12473076257873
Epoch (UTC): 26 January 2021 15:52:01
Eccentricity: 0.0014523
inclination: 70.8375°
perigee height: 840 km
apogee height: 861 km
right ascension of ascending node: 159.9694°
argument of perigee: 12.4334°
revolutions per day: 14.12473076
mean anomaly at epoch: 347.7141°
orbit number at epoch: 25787

The dashed part of the orbit path shows where the satellite is in the earth's shadow,  

DLR